Le nostre stazioni meteo in Italia

Pubblicità
Il mio iltempo24.it
Brescia/Ghedi, Italia (16088): Temperatura & dewpoint: 04.04.2020 04:00:00 - 10.04.2020 04:00:00 (CEST)Brescia/Ghedi, Italia (16088): velocità del vento: 04.04.2020 04:00:00 - 10.04.2020 04:00:00 (CEST)Brescia/Ghedi, Italia (16088): direzione del vento: 04.04.2020 04:00:00 - 10.04.2020 04:00:00 (CEST)Brescia/Ghedi, Italia (16088): reduced air pressure: 04.04.2020 04:00:00 - 10.04.2020 04:00:00 (CEST)Brescia/Ghedi, Italia (16088): visibility: 04.04.2020 04:00:00 - 10.04.2020 04:00:00 (CEST)
Data & Tempo tt [°C] td [°C] ff [km/h] ff [kn] dd ppp [hPa] vv [km]
10.04.2020 04:00:00 8,2 5,5 4 2 N 1021,9 10
10.04.2020 03:00:00 8,2 5,5 4 2 N 1021,9 10
10.04.2020 02:00:00 9,8 6,5 5 3 N 1021,8 10
10.04.2020 01:00:00 9,2 6,1 4 2 NNE 1021,9 10
10.04.2020 00:00:00 10,0 6,7 5 3 ENE 1021,8 10
09.04.2020 23:00:00 10,2 5,8 4 2 NNE 1021,4 10
09.04.2020 22:00:00 11,0 5,3 5 3 N 1021,0 10
09.04.2020 21:00:00 15,0 5,2 4 2 SSO 1020,4 10
09.04.2020 20:00:00 17,8 4,4 4 2 SSO 1020,3 15
09.04.2020 19:00:00 19,2 4,2 4 2 S 1020,2 20
09.04.2020 18:00:00 20,0 4,9 5 3 S 1020,4 20
09.04.2020 17:00:00 20,0 5,3 4 2 SSO 1020,4 20
09.04.2020 16:00:00 20,0 5,3 5 3 SO 1020,6 20
09.04.2020 15:00:00 19,6 5,7 8 4 O 1021,4 20
09.04.2020 14:00:00 18,8 6,0 8 4 SO 1021,9 20
09.04.2020 13:00:00 18,2 7,0 8 4 SO 1022,5 20
09.04.2020 12:00:00 16,8 7,2 5 3 SSO 1023,0 20
09.04.2020 11:00:00 15,4 6,4 4 2 SSO 1023,0 20
09.04.2020 10:00:00 14,0 7,1 4 2 S 1022,7 20
09.04.2020 09:00:00 10,8 6,5 2 1 NNE 1022,9 20
09.04.2020 08:00:00 5,0 3,2 5 3 NNO 1022,7 20
09.04.2020 07:00:00 4,5 2,5 5 3 N 1022,8 20
09.04.2020 06:00:00 5,6 2,9 5 3 NNO 1022,7 10
09.04.2020 05:00:00 6,7 2,6 4 2 NE 1022,8 10
09.04.2020 04:00:00 7,2 2,9 9 5 N 1023,8 10
09.04.2020 03:00:00 7,4 3,1 8 4 NNE 1023,8 10
09.04.2020 02:00:00 7,7 3,6 5 3 N 1023,8 10
09.04.2020 01:00:00 8,8 4,2 11 6 ENE 1024,2 10
09.04.2020 00:00:00 9,1 3,9 5 3 NNE 1024,2 10
08.04.2020 23:00:00 10,3 4,7 13 7 ENE 1024,0 10
08.04.2020 22:00:00 11,4 4,2 4 2 E 1023,9 10
08.04.2020 21:00:00 14,3 1,9 4 2 E 1023,3 10
08.04.2020 20:00:00 17,0 1,0 2 1 OSO 1023,5 20
08.04.2020 19:00:00 18,6 2,4 5 3 SE 1023,5 20
08.04.2020 18:00:00 18,6 2,9 4 2 SE 1023,5 20
08.04.2020 17:00:00 19,0 3,6 5 3 SSO 1024,2 20
08.04.2020 16:00:00 18,8 1,3 9 5 SE 1024,9 20
08.04.2020 15:00:00 18,6 3,6 8 4 S 1025,5 20
08.04.2020 14:00:00 18,0 3,1 5 3 SSO 1026,4 20
08.04.2020 13:00:00 17,4 3,0 4 2 OSO 1026,8 20
08.04.2020 12:00:00 17,0 3,0 5 3 S 1027,6 20
08.04.2020 11:00:00 16,2 4,6 9 5 SE 1027,6 20
08.04.2020 10:00:00 14,9 7,5 5 3 SSE 1027,7 15
08.04.2020 09:00:00 12,0 7,5 8 4 ENE 1027,8 10
08.04.2020 08:00:00 6,8 4,3 5 3 NE 1027,6 10
08.04.2020 07:00:00 4,8 2,8 4 2 NNE 1027,9 10
08.04.2020 06:00:00 5,2 2,2 4 2 N 1028,0 10
08.04.2020 05:00:00 5,0 1,8 5 3 N 1029,0 10
08.04.2020 04:00:00 5,2 1,9 5 3 NNE 1029,0 10
08.04.2020 03:00:00 6,6 1,5 8 4 N 1029,3 10
08.04.2020 02:00:00 7,0 1,5 5 3 NNE 1029,2 10
08.04.2020 01:00:00 9,0 1,9 5 3 ENE 1028,9 10
08.04.2020 00:00:00 10,2 1,8 9 5 ENE 1028,9 10
07.04.2020 23:00:00 11,2 2,5 11 6 ENE 1028,6 10
07.04.2020 22:00:00 10,2 1,6 5 3 N 1027,9 10
07.04.2020 21:00:00 13,8 3,3 9 5 ESE 1027,3 10
07.04.2020 20:00:00 16,9 3,2 8 4 SE 1026,6 10
07.04.2020 19:00:00 18,7 3,7 8 4 SSE 1026,5 10
07.04.2020 18:00:00 19,0 4,0 4 2 E 1026,5 10
07.04.2020 17:00:00 19,0 4,0 5 3 NE 1026,9 10
07.04.2020 16:00:00 18,9 4,3 5 3 SSE 1027,2 10
07.04.2020 15:00:00 18,4 3,8 4 2 S 1027,9 10
07.04.2020 14:00:00 17,8 3,3 9 5 SSE 1028,6 10
07.04.2020 13:00:00 17,0 2,6 8 4 SE 1028,6 10
07.04.2020 12:00:00 16,1 3,9 9 5 SSE 1028,6 10
07.04.2020 11:00:00 15,5 5,7 8 4 ENE 1028,6 10
07.04.2020 10:00:00 12,9 8,6 5 3 NNO 1028,1 10
07.04.2020 09:00:00 10,0 9,4 8 4 NNO 1027,9 10
07.04.2020 08:00:00 7,2 6,9 2 1 SSO 1027,9 10
07.04.2020 07:00:00 5,6 5,3 4 2 O 1027,4 10
07.04.2020 06:00:00 6,2 5,3 2 1 SO 1027,4 10
07.04.2020 05:00:00 7,0 5,3 8 4 ENE 1027,4 10
07.04.2020 04:00:00 7,4 5,0 5 3 NNE 1027,4 10
07.04.2020 03:00:00 8,0 5,3 5 3 N 1027,3 10
07.04.2020 02:00:00 8,6 5,9 9 5 NNE 1027,3 10
07.04.2020 01:00:00 9,0 5,5 11 6 NE 1027,3 10
07.04.2020 00:00:00 9,0 5,5 4 2 NNE 1027,1 10
06.04.2020 23:00:00 10,2 5,4 4 2 ENE 1026,8 10
06.04.2020 22:00:00 11,2 4,9 8 4 E 1026,5 10
06.04.2020 21:00:00 13,4 4,3 4 2 NNO 1026,0 10
06.04.2020 20:00:00 17,4 4,7 2 1 SO 1025,4 10
06.04.2020 19:00:00 18,6 5,1 4 2 SO 1025,0 10
06.04.2020 18:00:00 19,0 5,5 8 4 SE 1024,9 10
06.04.2020 17:00:00 19,2 5,3 9 5 SE 1025,3 10
06.04.2020 16:00:00 19,0 5,8 8 4 S 1025,6 10
06.04.2020 15:00:00 18,8 6,3 11 6 SE 1025,6 10
06.04.2020 14:00:00 18,0 5,6 15 8 ESE 1025,9 10
06.04.2020 13:00:00 17,5 6,1 13 7 E 1026,4 10
06.04.2020 12:00:00 16,2 6,9 5 3 OSO 1026,8 10
06.04.2020 11:00:00 15,0 7,3 5 3 SO 1026,7 10
06.04.2020 10:00:00 14,4 6,5 11 6 E 1026,5 10
06.04.2020 09:00:00 12,8 6,8 8 4 NNE 1026,0 10
06.04.2020 08:00:00 8,2 5,3 5 3 NE 1025,8 10
06.04.2020 07:00:00 6,4 3,9 5 3 N 1025,2 10
06.04.2020 06:00:00 7,0 4,7 4 2 NNE 1025,2 10
06.04.2020 05:00:00 7,0 4,7 5 3 NNE 1025,2 10
06.04.2020 04:00:00 7,2 4,0 9 5 NNO 1025,2 10
06.04.2020 03:00:00 7,4 4,2 8 4 NNO 1025,1 10
06.04.2020 02:00:00 8,4 4,6 9 5 NE 1025,1 10
06.04.2020 01:00:00 9,8 6,5 8 4 NNE 1024,9 10
06.04.2020 00:00:00 13,4 8,9 4 2 NNE 1024,6 10
05.04.2020 23:00:00 14,0 9,4 8 4 N 1023,9 10
05.04.2020 22:00:00 13,4 7,2 4 2 N 1023,7 10
05.04.2020 21:00:00 13,4 2,9 2 1 SO 1022,9 10
05.04.2020 20:00:00 15,0 1,9 8 4 SSE 1022,1 10
05.04.2020 19:00:00 17,0 2,6 11 6 SSE 1021,7 10
05.04.2020 18:00:00 17,6 4,6 9 5 SE 1021,8 10
05.04.2020 17:00:00 17,8 5,4 2 1 SE 1021,9 10
05.04.2020 16:00:00 17,4 5,0 8 4 O 1022,4 10
05.04.2020 15:00:00 17,0 5,3 8 4 SSO 1023,0 10
05.04.2020 14:00:00 16,4 5,1 8 4 SE 1023,8 10
05.04.2020 13:00:00 16,0 5,0 8 4 ENE 1024,4 10
05.04.2020 12:00:00 15,2 5,7 11 6 SE 1024,8 10
05.04.2020 11:00:00 14,4 5,2 15 8 ESE 1024,9 10
05.04.2020 10:00:00 13,0 6,6 8 4 E 1024,3 10
05.04.2020 09:00:00 10,8 7,1 8 4 ENE 1024,2 10
05.04.2020 08:00:00 7,0 4,5 11 6 NE 1024,2 10
05.04.2020 07:00:00 7,4 3,8 9 5 NE 1023,6 10
05.04.2020 06:00:00 8,4 4,0 11 6 ENE 1023,6 10
05.04.2020 05:00:00 8,2 3,8 11 6 NE 1023,7 10
05.04.2020 04:00:00 9,2 5,0 15 8 ENE 1023,7 10
05.04.2020 03:00:00 9,0 5,5 15 8 ENE 1023,7 10
05.04.2020 02:00:00 9,2 5,9 16 9 NE 1023,3 10
05.04.2020 01:00:00 9,2 5,9 11 6 NE 1022,4 8
05.04.2020 00:00:00 9,2 5,6 9 5 NE 1022,1 8
04.04.2020 23:00:00 9,2 4,8 11 6 NE 1021,9 8
04.04.2020 22:00:00 9,4 3,8 8 4 ENE 1021,2 8
04.04.2020 21:00:00 11,6 3,4 4 2 ESE 1020,5 10
04.04.2020 20:00:00 14,2 2,8 2 1 SSE 1019,6 10
04.04.2020 19:00:00 16,0 3,1 5 3 SO 1019,5 10
04.04.2020 18:00:00 16,2 3,3 5 3 S 1019,5 10
04.04.2020 17:00:00 16,2 3,6 5 3 SSE 1019,5 10
04.04.2020 16:00:00 16,2 4,0 8 4 SE 1019,7 10
04.04.2020 15:00:00 16,0 4,4 11 6 SE 1020,4 10
04.04.2020 14:00:00 16,0 5,3 13 7 SE 1020,7 10
04.04.2020 13:00:00 15,4 5,3 15 8 SE 1021,0 10
04.04.2020 12:00:00 15,0 5,8 13 7 ESE 1021,3 10
04.04.2020 11:00:00 13,2 5,6 11 6 E 1021,2 10
04.04.2020 10:00:00 12,0 6,7 5 3 SSE 1020,7 10
04.04.2020 09:00:00 9,8 7,6 5 3 ESE 1019,9 10
04.04.2020 08:00:00 5,0 4,6 5 3 ESE 1019,6 8
04.04.2020 07:00:00 3,2 2,5 8 4 N 1019,1 8
04.04.2020 06:00:00 4,3 3,6 8 4 N 1018,7 8
04.04.2020 05:00:00 4,0 3,3 5 3 N 1018,5 8
04.04.2020 04:00:00 4,9 3,4 4 2 NE 1018,1 8

tt = Temperatura
td = dewpoint
ff = velocità del vento
dd = direzione del vento
ppp = reduced air pressure
vv = visibility

Stazioni seguenti

WeatherPro
AMSI
MeteoEarth